This demonstration page uses our WeatherBlox Daily Observations layout. Learn more.

Left ArrowRight Arrow

Hourly Observations for January 31, 2016

Temp ( °F °C ) Dew Point ( °F °C ) Humidity (%) Winds ( mph kmh ) Pressure ( in mb ) Visibility ( mi km ) Precip ( " mm )
12:53 am 00:53 Clear 61 16.1 23 -5 23 23 WSW 15 24 29.65 1004 10 16 0.00 0.00
1:53 am 01:53 Clear 57 13.9 24 -4.4 28 28 WSW 14 22 29.65 1004 10 16 0.00 0.00
2:53 am 02:53 Clear 61 16.1 23 -5 23 23 WSW 17 28 29.64 1004 10 16 0.00 0.00
3:53 am 03:53 Clear 61 16.1 23 -5 23 23 W 18 30 29.65 1004 10 16 0.00 0.00
4:53 am 04:53 Clear 61 16.1 23 -5 23 23 W 22 35 29.65 1004 10 16 0.00 0.00
5:53 am 05:53 Clear 56 13.3 23 -5 28 28 WSW 9 15 29.70 1006 10 16 0.00 0.00
6:53 am 06:53 Clear 56 13.3 23 -5 28 28 W 10 17 29.72 1006 10 16 0.00 0.00
7:53 am 07:53 Sunny 56 13.3 23 -5 28 28 W 13 20 29.74 1007 10 16 0.00 0.00
8:53 am 08:53 Sunny 62 16.7 24 -4.4 23 23 W 18 30 29.76 1008 10 16 0.00 0.00
9:53 am 09:53 Sunny 66 18.9 24 -4.4 20 20 W 25 41 29.78 1009 10 16 0.00 0.00
10:53 am 10:53 Sunny 69 20.6 26 -3.3 20 20 W 24 39 29.78 1008 10 16 0.00 0.00
11:53 am 11:53 Sunny 72 22.2 26 -3.3 18 18 W 21 33 29.78 1009 10 16 0.00 0.00
12:53 pm 12:53 Sunny 75 23.9 26 -3.3 16 16 W 20 31 29.74 1007 10 16 0.00 0.00
1:53 pm 13:53 Sunny 76 24.4 24 -4.4 14 14 W 21 33 29.71 1006 10 16 0.00 0.00
2:53 pm 14:53 Sunny 77 25 23 -5 13 13 WSW 21 33 29.67 1005 10 16 0.00 0.00
3:53 pm 15:53 Sunny 77 25 21 -6.1 12 12 W 24 39 29.67 1005 10 16 0.00 0.00
4:53 pm 16:53 Sunny 76 24.4 20 -6.7 12 12 WSW 22 35 29.68 1005 10 16 0.00 0.00
5:53 pm 17:53 Sunny 73 22.8 18 -7.8 12 12 W 21 33 29.70 1006 10 16 0.00 0.00
6:53 pm 18:53 Clear 66 18.9 19 -7.2 16 16 W 12 19 29.73 1007 10 16 0.00 0.00
7:53 pm 19:53 Clear 61 16.1 20 -6.7 20 20 WSW 13 20 29.75 1008 10 16 0.00 0.00
8:53 pm 20:53 Clear 56 13.3 20 -6.7 24 24 WSW 7 11 29.75 1007 10 16 0.00 0.00
9:53 pm 21:53 Clear 50 10 22 -5.6 33 33 S 6 9 29.75 1008 10 16 0.00 0.00
10:53 pm 22:53 Clear 51 10.6 21 -6.1 31 31 SSW 6 9 29.74 1007 10 16 0.00 0.00
11:53 pm 23:53 Clear 49 9.4 22 -5.6 35 35 SW 3 6 29.74 1007 10 16 0.00 0.00

Powered by AerisWeather